| time (UTC) | temp F | wind direction | speed knots | gust knots | rain 1hr in | rain 24hr in | rain mn in | humidity % | barometer mb |
| 20260504181821 | 72 | 296 | 2.6 | 8.7 | 0.00 | 0.00 | 0.00 | 38 | 1010.7 |
| 20260504180334 | 71 | 202 | 0.9 | 7.8 | 0.00 | 0.00 | 0.00 | 40 | 1010.9 |
| 20260504174843 | 71 | 232 | 1.7 | 11.3 | 0.00 | 0.00 | 0.00 | 39 | 1011.1 |
| 20260504173352 | 71 | 252 | 2.6 | 8.7 | 0.00 | 0.00 | 0.00 | 39 | 1011.3 |
| 20260504171817 | 69 | 207 | 1.7 | 9.6 | 0.00 | 0.00 | 0.00 | 43 | 1011.5 |
| 20260504170316 | 69 | 174 | 3.5 | 13.0 | 0.00 | 0.00 | 0.00 | 39 | 1011.8 |
| 20260504160331 | 68 | 234 | 1.7 | 8.7 | 0.00 | 0.00 | 0.00 | 43 | 1012.5 |
| 20260504150344 | 66 | 215 | 2.6 | 8.7 | 0.00 | 0.00 | 0.00 | 48 | 1013.2 |
| 20260504140328 | 62 | 213 | 2.6 | 5.2 | 0.00 | 0.00 | 0.00 | 58 | 1013.4 |
| 20260504130329 | 57 | 219 | 0.9 | 8.7 | 0.00 | 0.00 | 0.00 | 70 | 1013.9 |
| 20260504120317 | 53 | 203 | 2.6 | 7.8 | 0.00 | 0.00 | 0.00 | 78 | 1014.1 |
| 20260504110317 | 41 | 296 | 0.0 | 3.5 | 0.00 | 0.00 | 0.00 | 90 | 1014.5 |
| 20260504100327 | 37 | 298 | 0.0 | 0.9 | 0.00 | 0.00 | 0.00 | 90 | 1014.5 |
| 20260504081817 | 38 | 298 | 0.0 | 0.0 | 0.00 | 0.00 | 0.00 | 90 | 1014.3 |
| 20260504080333 | 38 | 298 | 0.0 | 0.0 | 0.00 | 0.00 | 0.00 | 90 | 1014.3 |
| 20260504070318 | 40 | 298 | 0.0 | 0.9 | 0.00 | 0.00 | 0.00 | 89 | 1014.2 |
| 20260504050329 | 41 | 298 | 0.0 | 0.0 | 0.00 | 0.00 | 0.00 | 89 | 1014.1 |
| 20260504044839 | 41 | 298 | 0.0 | 0.0 | 0.00 | 0.00 | 0.00 | 88 | 1014.0 |
| 20260504043329 | 41 | 298 | 0.0 | 0.0 | 0.00 | 0.00 | 0.00 | 88 | 1014.0 |
| 20260504041817 | 42 | 298 | 0.0 | 0.0 | 0.00 | 0.00 | 0.00 | 88 | 1013.8 |
| 20260504040328 | 42 | 298 | 0.0 | 0.0 | 0.00 | 0.00 | 0.00 | 87 | 1013.6 |
| 20260504034819 | 42 | 298 | 0.0 | 0.0 | 0.00 | 0.00 | 0.00 | 87 | 1013.5 |
| 20260504033318 | 42 | 298 | 0.0 | 0.0 | 0.00 | 0.00 | 0.00 | 86 | 1013.5 |
| 20260504031828 | 43 | 298 | 0.0 | 0.0 | 0.00 | 0.00 | 0.00 | 85 | 1013.4 |
| 20260504030345 | 43 | 298 | 0.0 | 0.0 | 0.00 | 0.00 | 0.00 | 85 | 1013.3 |
| 20260504024814 | 44 | 298 | 0.0 | 0.0 | 0.00 | 0.00 | 0.00 | 84 | 1013.4 |
| 20260504023347 | 44 | 298 | 0.0 | 0.0 | 0.00 | 0.00 | 0.00 | 83 | 1013.4 |
| 20260504021820 | 45 | 298 | 0.0 | 0.0 | 0.00 | 0.00 | 0.00 | 82 | 1013.4 |
| 20260504020330 | 46 | 298 | 0.0 | 0.0 | 0.00 | 0.00 | 0.00 | 80 | 1013.3 |
| 20260504014826 | 47 | 298 | 0.0 | 0.0 | 0.00 | 0.00 | 0.00 | 78 | 1013.2 |
| 20260504013330 | 48 | 298 | 0.0 | 0.0 | 0.00 | 0.00 | 0.00 | 76 | 1013.1 |
| 20260504011845 | 49 | 298 | 0.0 | 0.0 | 0.00 | 0.00 | 0.00 | 74 | 1012.9 |
| 20260504010355 | 50 | 298 | 0.0 | 0.0 | 0.00 | 0.00 | 0.00 | 72 | 1012.8 |
| 20260504004822 | 51 | 298 | 0.0 | 0.0 | 0.00 | 0.00 | 0.00 | 67 | 1012.6 |
| 20260504003337 | 53 | 298 | 0.0 | 0.0 | 0.00 | 0.00 | 0.00 | 61 | 1012.3 |
| 20260504001847 | 54 | 298 | 0.0 | 0.0 | 0.00 | 0.00 | 0.00 | 56 | 1012.2 |
| 20260504000314 | 55 | 298 | 0.0 | 1.7 | 0.00 | 0.00 | 0.00 | 50 | 1012.1 |
| 20260503234831 | 56 | 298 | 0.0 | 0.0 | 0.00 | 0.00 | 0.00 | 48 | 1011.9 |
| 20260503233325 | 57 | 298 | 0.0 | 0.0 | 0.00 | 0.00 | 0.00 | 44 | 1011.8 |
| 20260503231821 | 58 | 298 | 0.0 | 0.9 | 0.00 | 0.00 | 0.00 | 43 | 1011.7 |
| 20260503230332 | 58 | 298 | 0.0 | 4.3 | 0.00 | 0.00 | 0.00 | 41 | 1011.7 |
| 20260503224831 | 59 | 300 | 0.0 | 5.2 | 0.00 | 0.00 | 0.00 | 38 | 1011.6 |
| 20260503223345 | 60 | 291 | 0.9 | 4.3 | 0.00 | 0.00 | 0.00 | 35 | 1011.6 |
| 20260503221837 | 60 | 239 | 0.9 | 3.5 | 0.00 | 0.00 | 0.00 | 36 | 1011.6 |
| 20260503220329 | 59 | 217 | 1.7 | 4.3 | 0.00 | 0.00 | 0.00 | 36 | 1011.5 |
| 20260503214821 | 59 | 319 | 0.9 | 5.2 | 0.00 | 0.00 | 0.00 | 36 | 1011.5 |
| 20260503213355 | 59 | 300 | 0.0 | 5.2 | 0.00 | 0.00 | 0.00 | 37 | 1011.5 |
| 20260503211822 | 59 | 288 | 0.9 | 4.3 | 0.00 | 0.00 | 0.00 | 36 | 1011.5 |
| 20260503210331 | 59 | 257 | 0.9 | 3.5 | 0.00 | 0.00 | 0.00 | 38 | 1011.5 |
| 20260503204820 | 59 | 317 | 0.9 | 5.2 | 0.00 | 0.00 | 0.00 | 37 | 1011.6 |
| 20260503203329 | 59 | 325 | 0.9 | 5.2 | 0.00 | 0.00 | 0.00 | 36 | 1011.8 |
| 20260503201823 | 59 | 266 | 1.7 | 7.8 | 0.00 | 0.00 | 0.00 | 37 | 1011.8 |
| 20260503200347 | 59 | 277 | 0.0 | 5.2 | 0.00 | 0.00 | 0.00 | 36 | 1011.8 |
| 20260503194855 | 60 | 259 | 2.6 | 6.1 | 0.00 | 0.00 | 0.00 | 36 | 1012.0 |
| 20260503193327 | 60 | 307 | 1.7 | 5.2 | 0.00 | 0.00 | 0.00 | 35 | 1012.1 |
| 20260503191815 | 60 | 234 | 1.7 | 7.0 | 0.00 | 0.00 | 0.00 | 37 | 1012.3 |
| 20260503190330 | 60 | 327 | 2.6 | 7.8 | 0.00 | 0.00 | 0.00 | 36 | 1012.3 |
| 20260503184828 | 59 | 346 | 1.7 | 9.6 | 0.00 | 0.00 | 0.00 | 37 | 1012.5 |
| 20260503183320 | 59 | 248 | 0.9 | 6.1 | 0.00 | 0.00 | 0.00 | 40 | 1012.6 |